TimeEST,TemperatureF,Dew PointF,Humidity,Sea Level PressureIn,VisibilityMPH,Wind Direction,Wind SpeedMPH,Gust SpeedMPH,PrecipitationIn,Events,Conditions,WindDirDegrees,DateUTC
12:15 AM,37.4,32.0,81,30.21,10.0,Calm,Calm,-,N/A,,Unknown,0,2013-01-16 05:15:00
12:35 AM,37.4,32.0,81,30.22,10.0,North,3.5,-,N/A,,Unknown,10,2013-01-16 05:35:00
12:55 AM,37.4,32.0,81,30.22,10.0,Calm,Calm,-,N/A,,Unknown,0,2013-01-16 05:55:00
1:15 AM,37.4,32.0,81,30.23,10.0,Calm,Calm,-,N/A,Rain,Light Rain,0,2013-01-16 06:15:00
1:35 AM,37.4,33.8,87,30.22,9.0,NE,3.5,-,N/A,Rain,Light Rain,40,2013-01-16 06:35:00
1:55 AM,37.4,33.8,87,30.23,10.0,NNE,3.5,-,0.01,Rain,Light Rain,30,2013-01-16 06:55:00
2:15 AM,37.4,33.8,87,30.22,10.0,NE,4.6,-,N/A,Rain,Light Rain,50,2013-01-16 07:15:00
2:35 AM,37.4,35.6,93,30.21,9.0,NE,4.6,-,N/A,Rain,Light Rain,40,2013-01-16 07:35:00
2:55 AM,37.4,35.6,93,30.19,9.0,NE,5.8,-,N/A,Rain,Light Rain,50,2013-01-16 07:55:00
3:15 AM,37.4,35.6,93,30.18,10.0,NE,6.9,-,N/A,Rain,Light Rain,40,2013-01-16 08:15:00
3:35 AM,37.4,35.6,93,30.16,8.0,NNE,5.8,-,N/A,Rain,Light Rain,30,2013-01-16 08:35:00
3:55 AM,37.4,35.6,93,30.15,7.0,North,5.8,-,0.01,Rain,Light Rain,10,2013-01-16 08:55:00
4:15 AM,35.6,35.6,100,30.13,5.0,NE,4.6,-,0.01,Rain,Light Rain,40,2013-01-16 09:15:00
4:35 AM,35.6,35.6,100,30.12,10.0,NNE,3.5,-,0.02,Rain,Light Rain,20,2013-01-16 09:35:00
4:55 AM,35.6,35.6,100,30.13,8.0,North,5.8,-,0.03,Rain,Light Rain,10,2013-01-16 09:55:00
5:15 AM,35.6,35.6,100,30.12,5.0,North,5.8,-,0.02,Rain,Light Rain,360,2013-01-16 10:15:00
5:35 AM,37.4,35.6,93,30.14,3.0,NNW,4.6,-,0.05,Rain,Rain,340,2013-01-16 10:35:00
5:55 AM,35.6,35.6,100,30.11,4.0,NNE,5.8,-,0.10,Rain,Rain,20,2013-01-16 10:55:00
6:15 AM,35.6,35.6,100,30.10,5.0,NNE,5.8,-,0.02,Rain,Light Rain,30,2013-01-16 11:15:00
6:35 AM,35.6,35.6,100,30.09,5.0,NNE,6.9,-,0.05,Rain,Light Rain,30,2013-01-16 11:35:00
6:55 AM,35.6,35.6,100,30.08,3.0,North,3.5,-,0.11,Rain,Rain,360,2013-01-16 11:55:00
7:15 AM,35.6,35.6,100,30.07,3.0,NE,6.9,-,0.02,Rain,Rain,40,2013-01-16 12:15:00
7:35 AM,35.6,35.6,100,30.10,3.0,Calm,Calm,-,0.08,Rain,Rain,0,2013-01-16 12:35:00
7:55 AM,35.6,35.6,100,30.08,2.0,Calm,Calm,-,0.14,Rain,Rain,0,2013-01-16 12:55:00
8:15 AM,37.4,35.6,93,30.08,3.0,ENE,4.6,-,0.01,Rain,Light Rain,70,2013-01-16 13:15:00
8:35 AM,37.4,37.4,100,30.07,4.0,ENE,4.6,-,0.02,Rain,Light Rain,70,2013-01-16 13:35:00
8:55 AM,37.4,37.4,100,30.07,3.0,East,4.6,-,0.02,Rain,Light Rain,90,2013-01-16 13:55:00
9:15 AM,39.2,37.4,93,30.06,3.0,ESE,8.1,-,N/A,Rain,Light Rain,120,2013-01-16 14:15:00
9:35 AM,39.2,39.2,100,30.03,4.0,SE,10.4,16.1,0.01,Rain,Light Rain,130,2013-01-16 14:35:00
9:55 AM,39.2,39.2,100,30.00,9.0,ESE,12.7,17.3,0.01,,Unknown,120,2013-01-16 14:55:00
10:15 AM,39.2,39.2,100,29.96,3.0,ESE,15.0,23.0,N/A,,Mist,120,2013-01-16 15:15:00
10:35 AM,39.2,39.2,100,29.94,7.0,ESE,15.0,20.7,N/A,,Unknown,120,2013-01-16 15:35:00
10:55 AM,39.2,39.2,100,29.92,7.0,East,13.8,19.6,N/A,,Unknown,100,2013-01-16 15:55:00
11:15 AM,39.2,37.4,93,29.90,5.0,ESE,12.7,16.1,N/A,,Mist,120,2013-01-16 16:15:00
11:35 AM,39.2,37.4,93,29.89,3.0,ESE,8.1,-,N/A,,Mist,110,2013-01-16 16:35:00
11:55 AM,39.2,37.4,93,29.89,1.8,ESE,9.2,-,N/A,,Mist,120,2013-01-16 16:55:00
12:15 PM,39.2,37.4,93,29.89,1.8,ESE,9.2,-,N/A,,Mist,120,2013-01-16 17:15:00
12:35 PM,39.2,37.4,93,29.87,1.8,ESE,8.1,-,N/A,,Mist,110,2013-01-16 17:35:00
12:55 PM,39.2,37.4,93,29.88,1.5,ESE,5.8,-,N/A,,Mist,110,2013-01-16 17:55:00
1:15 PM,39.2,39.2,100,29.87,2.0,East,3.5,-,N/A,,Unknown,90,2013-01-16 18:15:00
1:35 PM,39.2,39.2,100,29.87,2.0,East,3.5,-,N/A,Rain,Light Rain,80,2013-01-16 18:35:00
1:55 PM,39.2,39.2,100,29.87,2.0,Calm,Calm,-,N/A,Rain,Light Rain,0,2013-01-16 18:55:00
2:15 PM,39.2,39.2,100,29.85,2.5,Calm,Calm,-,N/A,Rain,Light Rain,0,2013-01-16 19:15:00
2:55 PM,39.2,39.2,100,29.75,9.0,SE,8.1,-,N/A,,Unknown,130,2013-01-16 19:55:00
3:15 PM,39.2,39.2,100,29.77,7.0,NE,3.5,-,N/A,,Unknown,40,2013-01-16 20:15:00
3:35 PM,39.2,39.2,100,29.79,5.0,NNW,8.1,-,N/A,,Mist,330,2013-01-16 20:35:00
3:55 PM,39.2,39.2,100,29.80,4.0,NNW,5.8,-,N/A,,Mist,330,2013-01-16 20:55:00
4:15 PM,39.2,39.2,100,29.82,1.5,NNW,6.9,-,N/A,,Mist,330,2013-01-16 21:15:00
4:35 PM,39.2,39.2,100,29.83,2.0,NNW,4.6,-,N/A,,Mist,330,2013-01-16 21:35:00
4:55 PM,37.4,37.4,100,29.83,2.0,WNW,5.8,-,N/A,,Mist,290,2013-01-16 21:55:00
5:15 PM,37.4,37.4,100,29.83,1.8,WNW,6.9,-,N/A,,Mist,300,2013-01-16 22:15:00
5:35 PM,37.4,35.6,93,29.84,1.8,NW,8.1,-,N/A,,Mist,320,2013-01-16 22:35:00
5:55 PM,35.6,35.6,100,29.84,1.2,NW,3.5,-,N/A,,Mist,310,2013-01-16 22:55:00
6:15 PM,35.6,35.6,100,29.84,1.2,NW,3.5,-,N/A,,Mist,310,2013-01-16 23:15:00
6:35 PM,35.6,35.6,100,29.85,1.2,NW,4.6,-,N/A,,Mist,310,2013-01-16 23:35:00
6:55 PM,35.6,35.6,100,29.85,0.8,West,3.5,-,N/A,,Mist,280,2013-01-16 23:55:00
7:15 PM,35.6,35.6,100,29.85,1.0,WNW,4.6,-,N/A,,Mist,300,2013-01-17 00:15:00
7:35 PM,35.6,35.6,100,29.84,1.5,NW,3.5,-,N/A,,Mist,310,2013-01-17 00:35:00
7:55 PM,35.6,35.6,100,29.85,2.0,West,5.8,-,N/A,,Mist,280,2013-01-17 00:55:00
8:15 PM,35.6,33.8,93,29.84,4.0,West,4.6,-,N/A,,Mist,260,2013-01-17 01:15:00
8:35 PM,35.6,33.8,93,29.84,5.0,West,6.9,-,N/A,,Mist,260,2013-01-17 01:35:00
8:55 PM,35.6,33.8,93,29.84,5.0,WNW,4.6,-,N/A,,Mist,290,2013-01-17 01:55:00
9:15 PM,35.6,33.8,93,29.86,7.0,West,5.8,-,N/A,,Unknown,270,2013-01-17 02:15:00
9:35 PM,35.6,33.8,93,29.86,10.0,West,5.8,-,N/A,,Unknown,260,2013-01-17 02:35:00
9:55 PM,35.6,33.8,93,29.85,9.0,West,5.8,-,N/A,,Unknown,270,2013-01-17 02:55:00
10:15 PM,35.6,33.8,93,29.85,7.0,West,6.9,-,N/A,,Unknown,260,2013-01-17 03:15:00
10:35 PM,35.6,35.6,100,29.86,5.0,WSW,10.4,-,N/A,,Mist,250,2013-01-17 03:35:00
10:55 PM,35.6,35.6,100,29.86,8.0,West,10.4,-,N/A,,Unknown,270,2013-01-17 03:55:00
11:15 PM,35.6,35.6,100,29.87,10.0,West,11.5,-,N/A,,Unknown,280,2013-01-17 04:15:00
11:35 PM,35.6,35.6,100,29.87,10.0,West,9.2,-,N/A,,Unknown,270,2013-01-17 04:35:00
11:55 PM,35.6,35.6,100,29.87,10.0,WSW,8.1,-,N/A,,Unknown,250,2013-01-17 04:55:00